Charles City, IA

5:38 AM CDT on March 27, 2017 (GMT -0500)
Charles City Municipal

Weather History for KCCY - October, 2011

Change the Weather History Date:

Thursday, October 13, 2011

  Actual Average Record
Temperature  
Mean Temperature 58 °F -  
Max Temperature 64 °F 61 °F 89 °F (1975)
Min Temperature 50 °F 39 °F 23 °F (1988)
Degree Days  
Heating Degree Days 8    
Growing Degree Days 8 (Base 50)    
Moisture  
Dew Point 46 °F    
Average Humidity 68    
Maximum Humidity 88    
Minimum Humidity 42    
Precipitation  
Precipitation 0.06 in - - ()
Sea Level Pressure  
Sea Level Pressure 29.65 in    
Wind  
Wind Speed 11 mph (WNW)    
Max Wind Speed 24 mph    
Max Gust Speed 32 mph    
Visibility 8 miles    
Events Rain    
Averages and records for this station are not official NWS values.
T = Trace of Precipitation, MM = Missing Value Source: NWS Daily Summary

Daily Weather History Graph

Daily Weather History Graph

Search for Another Location

Airport or City:

Trip Planner

Search our weather history database for the weather conditions in past years. The results will help you decide how hot, cold, wet, or windy it might be!

Date:

Astronomy

Oct. 13, 2011 Rise Set
Actual Time 7:21 AM CDT 6:31 PM CDT
Civil Twilight 6:52 AM CDT 6:59 PM CDT
Nautical Twilight 6:19 AM CDT 7:32 PM CDT
Astronomical Twilight 5:46 AM CDT 8:05 PM CDT
Moon 7:02 PM CDT (10/13) 8:57 AM CDT (10/13)
Length of Visible Light 12h 07m
Length of Day
11h 10m
Full, 98% of the Moon is Illuminated
Oct 13
Full
Oct 19
Last Quarter
Oct 26
New
Nov 2
First Quarter
Nov 10
Full

Hourly Weather History & Observations

Time (CDT) Temp. Windchill Dew Point Humidity Pressure Visibility Wind Dir Wind Speed Gust Speed Precip Events Conditions
12:15 AM 57.2 °F - 51.8 °F 82% 29.64 in 7.0 mi NNW 11.5 mph - 0.05 in Rain Light Rain
12:35 AM 57.2 °F - 51.8 °F 82% 29.64 in 7.0 mi NW 8.1 mph - 0.07 in Rain Light Rain
1:15 AM 57.2 °F - 51.8 °F 82% 29.64 in 7.0 mi NW 10.4 mph - 0.01 in Rain Light Rain
1:55 AM 57.2 °F - 51.8 °F 82% 29.64 in 7.0 mi NW 9.2 mph - 0.03 in Rain Rain
2:15 AM 57.2 °F - 51.8 °F 82% 29.64 in 7.0 mi NW 11.5 mph - N/A Rain Rain
2:35 AM 57.2 °F - 51.8 °F 82% 29.64 in 10.0 mi NW 9.2 mph - 0.01 in Rain Rain
3:15 AM 57.2 °F - 51.8 °F 82% 29.63 in 4.0 mi NW 9.2 mph - N/A Rain Light Rain
3:35 AM 57.2 °F - 51.8 °F 82% 29.63 in 4.0 mi NW 9.2 mph - N/A   Light Drizzle
3:36 AM 57.2 °F - 51.8 °F 82% 29.63 in 4.0 mi NW 8.1 mph - N/A   Light Drizzle
3:55 AM 57.2 °F - 51.8 °F 82% 29.63 in 4.0 mi NW 9.2 mph - N/A Rain Rain
4:15 AM 57.2 °F - 51.8 °F 82% 29.63 in 4.0 mi NW 10.4 mph - N/A   Drizzle
4:35 AM 55.4 °F - 51.8 °F 88% 29.63 in 4.0 mi NW 9.2 mph - 0.02 in Rain Light Rain
4:55 AM 55.4 °F - 51.8 °F 88% 29.63 in 3.0 mi WNW 8.1 mph - 0.02 in   Haze
5:15 AM 55.4 °F - 51.8 °F 88% 29.64 in 3.0 mi WNW 10.4 mph - N/A   Haze
5:35 AM 55.4 °F - 51.8 °F 88% 29.64 in 3.0 mi WNW 8.1 mph - N/A   Haze
5:55 AM 55.4 °F - 50.0 °F 82% 29.64 in 3.0 mi WNW 9.2 mph - N/A   Haze
6:15 AM 55.4 °F - 50.0 °F 82% 29.64 in 3.0 mi WNW 8.1 mph - N/A   Haze
6:55 AM 53.6 °F - 48.2 °F 82% 29.65 in 3.0 mi West 9.2 mph - N/A   Haze
7:35 AM 53.6 °F - 48.2 °F 82% 29.65 in 2.0 mi WNW 9.2 mph - N/A   Haze
7:55 AM 53.6 °F - 48.2 °F 82% 29.65 in 2.0 mi WNW 11.5 mph 16.1 mph N/A   Haze
8:35 AM 53.6 °F - 48.2 °F 82% 29.65 in 5.0 mi WNW 10.4 mph - N/A   Haze
9:15 AM 53.6 °F - 48.2 °F 82% 29.66 in 10.0 mi WNW 9.2 mph 18.4 mph N/A   Clear
9:35 AM 55.4 °F - 48.2 °F 77% 29.66 in 10.0 mi NW 9.2 mph 17.3 mph N/A   Clear
9:55 AM 55.4 °F - 48.2 °F 77% 29.66 in 10.0 mi NW 11.5 mph 18.4 mph N/A   Clear
10:15 AM 57.2 °F - 48.2 °F 72% 29.67 in 10.0 mi WNW 12.7 mph 18.4 mph N/A   Clear
10:35 AM 59.0 °F - 48.2 °F 67% 29.66 in 10.0 mi NW 12.7 mph 19.6 mph N/A   Clear
10:55 AM 60.8 °F - 50.0 °F 68% 29.66 in 10.0 mi NW 11.5 mph 21.9 mph N/A   Clear
11:15 AM 62.6 °F - 50.0 °F 63% 29.66 in 10.0 mi NW 16.1 mph 24.2 mph N/A   Clear
11:35 AM 62.6 °F - 48.2 °F 59% 29.66 in 10.0 mi NW 15.0 mph 24.2 mph N/A   Clear
11:55 AM 64.4 °F - 48.2 °F 56% 29.66 in 10.0 mi NW 13.8 mph 20.7 mph N/A   Scattered Clouds
12:15 PM 62.6 °F - 48.2 °F 59% 29.66 in 10.0 mi WNW 16.1 mph 21.9 mph N/A   Scattered Clouds
12:35 PM 62.6 °F - 48.2 °F 59% 29.66 in 10.0 mi WNW 24.2 mph 29.9 mph N/A   Scattered Clouds
12:55 PM 64.4 °F - 48.2 °F 56% 29.66 in 10.0 mi WNW 19.6 mph 27.6 mph N/A   Scattered Clouds
1:15 PM 62.6 °F - 46.4 °F 55% 29.65 in 10.0 mi West 24.2 mph 29.9 mph N/A   Clear
1:35 PM 62.6 °F - 46.4 °F 55% 29.65 in 10.0 mi West 20.7 mph 32.2 mph N/A   Clear
2:15 PM 62.6 °F - 44.6 °F 52% 29.65 in 10.0 mi WNW 19.6 mph 26.5 mph N/A   Clear
2:35 PM 62.6 °F - 44.6 °F 52% 29.65 in 10.0 mi NW 17.3 mph 24.2 mph N/A   Clear
2:55 PM 62.6 °F - 42.8 °F 48% 29.65 in 10.0 mi WNW 20.7 mph 27.6 mph N/A   Scattered Clouds
3:15 PM 62.6 °F - 42.8 °F 48% 29.64 in 10.0 mi WNW 19.6 mph 26.5 mph N/A   Scattered Clouds
3:35 PM 62.6 °F - 42.8 °F 48% 29.63 in 10.0 mi WNW 13.8 mph 20.7 mph N/A   Scattered Clouds
3:55 PM 62.6 °F - 42.8 °F 48% 29.64 in 10.0 mi WNW 17.3 mph 31.1 mph N/A   Scattered Clouds
4:15 PM 62.6 °F - 41.0 °F 45% 29.64 in 10.0 mi WNW 16.1 mph 26.5 mph N/A   Clear
4:35 PM 62.6 °F - 39.2 °F 42% 29.64 in 10.0 mi NW 21.9 mph 27.6 mph N/A   Clear
4:55 PM 60.8 °F - 39.2 °F 45% 29.64 in 10.0 mi WNW 18.4 mph 29.9 mph N/A   Clear
5:15 PM 60.8 °F - 39.2 °F 45% 29.64 in 10.0 mi WNW 18.4 mph 27.6 mph N/A   Clear
5:35 PM 60.8 °F - 39.2 °F 45% 29.64 in 10.0 mi NW 12.7 mph 25.3 mph N/A   Clear
6:15 PM 57.2 °F - 39.2 °F 51% 29.65 in 10.0 mi NW 12.7 mph - N/A   Clear
6:35 PM 55.4 °F - 39.2 °F 54% 29.65 in 10.0 mi WNW 9.2 mph - N/A   Clear
6:55 PM 55.4 °F - 39.2 °F 54% 29.65 in 10.0 mi WNW 6.9 mph - N/A   Clear
7:15 PM 53.6 °F - 41.0 °F 62% 29.66 in 10.0 mi West 5.8 mph - N/A   Clear
7:35 PM 53.6 °F - 41.0 °F 62% 29.67 in 10.0 mi West 6.9 mph - N/A   Clear
7:55 PM 51.8 °F - 42.8 °F 71% 29.67 in 10.0 mi West 6.9 mph - N/A   Clear
8:15 PM 51.8 °F - 41.0 °F 67% 29.67 in 10.0 mi WNW 9.2 mph - N/A   Clear
8:35 PM 51.8 °F - 41.0 °F 67% 29.67 in 10.0 mi WNW 6.9 mph - N/A   Scattered Clouds
8:55 PM 51.8 °F - 41.0 °F 67% 29.67 in 10.0 mi WNW 5.8 mph - N/A   Scattered Clouds
9:15 PM 51.8 °F - 41.0 °F 67% 29.67 in 10.0 mi WNW 6.9 mph - N/A   Scattered Clouds
9:35 PM 51.8 °F - 41.0 °F 67% 29.67 in 10.0 mi West 6.9 mph - N/A   Mostly Cloudy
9:55 PM 50.0 °F - 41.0 °F 71% 29.67 in 10.0 mi West 6.9 mph - N/A   Scattered Clouds
10:15 PM 50.0 °F - 41.0 °F 71% 29.67 in 10.0 mi West 6.9 mph - N/A   Clear
10:35 PM 48.2 °F - 39.2 °F 71% 29.67 in 10.0 mi West 6.9 mph - N/A   Clear
10:55 PM 48.2 °F - 39.2 °F 71% 29.66 in 10.0 mi West 6.9 mph - N/A   Clear
11:15 PM 46.4 °F 43.5 °F 39.2 °F 76% 29.67 in 10.0 mi West 5.8 mph - N/A   Clear
11:35 PM 46.4 °F 42.9 °F 39.2 °F 76% 29.66 in 10.0 mi West 6.9 mph - N/A   Clear
11:55 PM 46.4 °F 42.4 °F 39.2 °F 76% 29.66 in 10.0 mi West 8.1 mph - N/A   Clear